Temp
-4 -3 -4 -4 -5 -5 -5 -5 -5 -5 -5 -6 -6 -6 -6 -6 -6 -6 -7 -6 -7 -7 -7 -7 -7 -7 -7 -7 -6 -6 -6 -6 -6 -6 -5 -5 -4 -3
-4 -4 -5 -5 -5 -5 -5 -5 -5 -6 -6 -6 -7 -7 -7 -7 -7 -7 -7 -7 -7 -7 -7 -7 -7 -7 -7 -7 -7 -7 -7 -7 -6 -7 -6 -6 -5 -5
-4 -5 -5 -5 -5 -5 -5 -6 -6 -6 -6 -6 -7 -7 -7 -7 -7 -7 -7 -7 -7 -7 -7 -7 -7 -7 -7 -7 -7 -7 -7 -7 -7 -7 -7 -7 -6 -6
-5 -5 -6 -5 -5 -6 -6 -6 -6 -6 -6 -7 -7 -7 -7 -7 -7 -7 -7 -7 -7 -7 -7 -7 -8 -8 -8 -8 -8 -8 -8 -8 -7 -7 -7 -7 -7 -7
-6 -6 -6 -6 -6 -6 -6 -6 -6 -7 -7 -7 -7 -7 -7 -7 -7 -7 -7 -7 -8 -8 -8 -8 -8 -8 -8 -8 -8 -8 -8 -8 -8 -8 -8 -7 -7 -7
-6 -6 -6 -6 -6 -6 -6 -7 -7 -7 -7 -7 -7 -7 -7 -8 -8 -8 -8 -8 -8 -8 -8 -8 -8 -8 -8 -8 -8 -9 -9 -8 -8 -8 -8 -8 -8 -7
-6 -7 -7 -7 -7 -7 -7 -7 -7 -7 -7 -7 -7 -8 -8 -8 -8 -8 -8 -8 -8 -8 -8 -8 -8 -8 -9 -9 -9 -9 -9 -9 -9 -8 -8 -8 -8 -8
-7 -7 -7 -7 -7 -7 -7 -7 -7 -7 -7 -7 -7 -8 -8 -8 -8 -8 -8 -8 -8 -8 -8 -8 -8 -8 -9 -9 -9 -9 -9 -9 -9 -9 -9 -8 -8 -8
-7 -7 -8 -8 -8 -8 -8 -8 -8 -8 -8 -8 -8 -8 -8 -8 -8 -8 -8 -8 -9 -9 -9 -9 -9 -9 -9 -9 -9 -9 -9 -9 -9 -9 -9 -9 -9 -8
-8 -8 -8 -8 -8 -8 -8 -8 -8 -8 -8 -8 -8 -8 -8 -8 -9 -9 -9 -9 -9 -9 -9 -9 -9 -9 -9 -9 -9 -9 -9 -9 -9 -9 -9 -9 -9 -9
-8 -8 -9 -8 -8 -8 -8 -9 -9 -9 -9 -9 -9 -9 -9 -9 -9 -9 -9 -9 -9 -9 -9 -9 -9 -9 -9 -9 -10 -10 -10 -10 -10 -10 -9 -9 -10 -9
-9 -9 -9 -9 -9 -9 -9 -9 -9 -9 -9 -9 -9 -9 -9 -9 -9 -9 -9 -10 -10 -10 -10 -10 -10 -10 -10 -10 -10 -10 -10 -10 -10 -10 -10 -10 -10 -10
-9 -10 -10 -10 -10 -10 -10 -10 -10 -10 -10 -10 -10 -10 -10 -10 -10 -10 -10 -10 -10 -10 -10 -10 -10 -10 -11 -11 -10 -10 -11 -11 -11 -11 -11 -11 -11 -10
-10 -10 -10 -10 -10 -10 -10 -10 -10 -10 -10 -10 -10 -10 -10 -10 -10 -10 -10 -10 -10 -10 -10 -11 -11 -11 -11 -11 -11 -11 -11 -11 -11 -11 -11 -11 -11 -11
-11 -11 -10 -10 -10 -10 -10 -10 -10 -11 -11 -11 -11 -11 -11 -11 -11 -11 -11 -11 -11 -11 -11 -11 -11 -11 -11 -11 -12 -12 -12 -13 -12 -12 -12 -12 -11 -12
-11 -11 -11 -11 -11 -11 -11 -11 -11 -11 -11 -11 -11 -11 -11 -11 -11 -11 -11 -11 -12 -12 -12 -12 -12 -12 -12 -12 -12 -12 -12 -12 -12 -12 -12 -12 -12 -12
-11 -11 -11 -11 -11 -11 -11 -11 -12 -12 -12 -12 -12 -12 -12 -12 -12 -12 -12 -12 -12 -12 -12 -12 -12 -12 -12 -13 -13 -13 -13 -13 -13 -13 -13 -13 -14 -14
-10 -11 -11 -11 -11 -12 -12 -12 -12 -12 -12 -12 -12 -12 -12 -13 -13 -13 -13 -13 -13 -13 -13 -13 -13 -13 -13 -13 -13 -14 -14 -14 -15 -15 -14 -14 -15 -15
-10 -11 -11 -11 -12 -12 -12 -12 -12 -13 -13 -13 -13 -13 -13 -13 -13 -13 -13 -14 -14 -14 -14 -14 -14 -14 -14 -14 -15 -15 -16 -16 -15 -15 -15 -15 -15 -15
-10 -11 -12 -12 -12 -12 -13 -13 -13 -13 -13 -13 -13 -13 -13 -14 -14 -14 -14 -14 -14 -15 -15 -15 -15 -16 -15 -15 -16 -17 -17 -17 -17 -16 -16 -16 -16 -16
-11 -11 -12 -12 -13 -13 -13 -13 -13 -13 -13 -13 -13 -14 -14 -14 -14 -15 -15 -15 -15 -15 -15 -16 -16 -16 -16 -17 -17 -18 -18 -18 -18 -18 -17 -17 -17 -17
-11 -12 -12 -12 -13 -13 -13 -13 -13 -13 -13 -14 -14 -14 -14 -14 -15 -15 -15 -16 -16 -16 -17 -17 -18 -18 -18 -18 -19 -19 -19 -20 -20 -20 -20 -20 -20 -19
-12 -12 -12 -12 -12 -12 -13 -13 -13 -14 -14 -14 -14 -15 -15 -15 -16 -16 -16 -17 -17 -17 -18 -18 -19 -19 -19 -20 -20 -20 -20 -20 -20 -20 -21 -21 -21 -21
Height
3050 3049 3049 3049 3052 3053 3054 3055 3055 3055 3057 3057 3056 3055 3054 3053 3052 3052 3051 3050 3048 3048 3047 3046 3044 3043 3040 3038 3035 3033 3031 3029 3027 3026 3025 3025 3025 3026
3046 3046 3046 3047 3049 3051 3052 3052 3052 3053 3054 3054 3053 3053 3052 3052 3052 3051 3050 3049 3048 3047 3046 3046 3044 3042 3040 3038 3036 3033 3031 3028 3026 3024 3023 3022 3021 3022
3042 3043 3044 3045 3046 3048 3049 3050 3051 3051 3051 3052 3052 3051 3051 3050 3050 3050 3049 3048 3048 3047 3046 3045 3043 3041 3039 3037 3035 3033 3030 3028 3026 3024 3023 3021 3019 3018
3037 3039 3041 3043 3044 3046 3047 3048 3048 3049 3050 3049 3050 3049 3049 3049 3048 3048 3047 3047 3046 3046 3045 3044 3041 3039 3037 3036 3033 3031 3030 3028 3026 3025 3023 3021 3019 3017
3032 3035 3037 3040 3041 3043 3045 3046 3046 3047 3047 3047 3047 3047 3047 3047 3047 3046 3045 3045 3044 3043 3042 3041 3040 3038 3035 3034 3032 3030 3029 3027 3026 3024 3022 3021 3019 3017
3028 3031 3034 3036 3038 3040 3041 3043 3044 3044 3045 3045 3045 3045 3045 3045 3044 3044 3043 3042 3041 3040 3039 3038 3037 3036 3033 3032 3031 3029 3027 3026 3025 3023 3021 3019 3018 3016
3024 3026 3029 3032 3034 3036 3038 3040 3041 3042 3043 3043 3043 3043 3042 3042 3042 3040 3039 3039 3038 3037 3036 3035 3034 3032 3031 3029 3028 3027 3025 3024 3023 3021 3019 3018 3016 3015
3019 3021 3024 3027 3030 3033 3035 3037 3038 3039 3040 3040 3040 3040 3040 3039 3039 3037 3036 3035 3035 3034 3032 3031 3030 3029 3028 3026 3025 3024 3023 3021 3020 3018 3016 3015 3013 3011
3013 3016 3018 3022 3025 3028 3031 3033 3035 3035 3036 3037 3038 3037 3037 3037 3036 3035 3034 3033 3032 3031 3030 3028 3027 3025 3024 3023 3022 3020 3019 3018 3016 3015 3013 3011 3009 3008
3007 3011 3013 3017 3020 3023 3026 3028 3030 3031 3032 3033 3033 3033 3033 3033 3033 3032 3031 3030 3029 3027 3025 3024 3022 3021 3020 3019 3018 3017 3015 3014 3012 3010 3009 3007 3005 3003
3001 3005 3007 3012 3015 3018 3020 3023 3025 3026 3027 3028 3029 3029 3029 3029 3029 3028 3028 3027 3025 3024 3022 3020 3019 3016 3015 3014 3012 3011 3010 3009 3007 3005 3004 3002 2999 2997
2996 2999 3002 3006 3010 3012 3014 3017 3019 3021 3022 3023 3024 3024 3024 3024 3024 3024 3023 3022 3021 3019 3018 3016 3014 3012 3010 3008 3006 3005 3003 3002 3001 2999 2997 2996 2994 2992
2990 2994 2996 3000 3003 3005 3008 3011 3013 3015 3016 3017 3018 3018 3018 3019 3019 3018 3018 3017 3015 3013 3012 3010 3009 3006 3005 3003 3000 2998 2997 2995 2994 2992 2990 2989 2987 2985
2984 2987 2989 2993 2996 2999 3001 3004 3006 3008 3010 3011 3012 3012 3012 3012 3012 3012 3011 3010 3008 3007 3006 3004 3003 3001 2999 2997 2995 2992 2990 2989 2988 2986 2984 2982 2979 2977
2978 2980 2984 2987 2989 2992 2994 2997 2999 3000 3002 3004 3005 3005 3005 3005 3005 3005 3004 3002 3001 3000 2998 2997 2996 2994 2992 2990 2988 2986 2984 2982 2981 2980 2977 2974 2972 2970
2972 2975 2978 2980 2983 2985 2988 2991 2992 2993 2995 2996 2997 2997 2997 2997 2997 2996 2996 2995 2994 2993 2990 2989 2987 2986 2983 2981 2979 2976 2975 2973 2971 2970 2969 2966 2963 2960
2964 2967 2970 2973 2975 2978 2980 2982 2984 2986 2987 2987 2988 2988 2988 2988 2988 2987 2987 2986 2985 2984 2982 2980 2978 2976 2974 2972 2969 2967 2964 2962 2960 2959 2957 2956 2953 2949
2958 2961 2963 2965 2968 2970 2972 2974 2975 2977 2977 2977 2978 2979 2979 2978 2978 2978 2977 2976 2975 2973 2972 2970 2968 2966 2964 2962 2959 2957 2954 2952 2950 2948 2946 2944 2945 2939
2951 2954 2956 2958 2960 2962 2963 2964 2966 2967 2966 2967 2968 2968 2968 2968 2968 2968 2967 2966 2965 2963 2961 2959 2957 2954 2953 2953 2951 2947 2945 2942 2940 2939 2936 2933 2930 2929
2945 2947 2949 2951 2952 2953 2953 2954 2955 2955 2956 2957 2957 2958 2957 2957 2957 2957 2956 2955 2954 2953 2951 2949 2947 2943 2941 2941 2940 2941 2933 2931 2929 2926 2925 2922 2919 2916
2937 2939 2940 2941 2942 2943 2943 2944 2944 2944 2944 2944 2946 2946 2946 2945 2945 2945 2944 2943 2942 2941 2940 2939 2936 2931 2931 2929 2927 2928 2927 2922 2917 2913 2910 2907 2905 2903
2930 2931 2932 2932 2932 2932 2933 2933 2933 2933 2934 2934 2934 2935 2935 2933 2933 2933 2932 2931 2930 2929 2928 2928 2925 2921 2920 2918 2917 2915 2914 2914 2911 2906 2901 2896 2890 2884
2923 2923 2923 2923 2923 2922 2922 2921 2920 2921 2921 2922 2922 2922 2922 2921 2921 2920 2920 2920 2919 2918 2917 2917 2914 2912 2911 2909 2906 2905 2902 2900 2897 2896 2894 2889 2883 2878
Wind_Speed
18 17 17 15 9 9 10 10 10 8 7 5 4 3 2 3 4 4 5 6 7 8 8 9 10 11 11 12 12 12 11 12 10 11 14 16 21 22
16 13 12 11 8 9 9 9 9 9 8 6 4 3 2 2 4 4 5 7 7 9 10 10 11 11 11 11 11 11 11 10 11 10 9 10 12 15
14 12 13 12 11 10 10 10 9 9 7 5 4 4 4 4 5 5 6 6 7 8 9 11 11 12 12 12 11 10 10 10 10 9 9 7 7 8
13 14 14 13 12 11 11 11 9 9 7 5 4 4 4 4 5 5 5 6 7 7 8 9 11 12 13 12 11 10 9 8 8 8 8 8 7 6
14 16 15 14 14 13 12 11 10 9 6 6 5 4 5 5 5 6 6 6 7 8 8 9 10 11 13 12 11 9 8 8 8 8 8 8 7 7
17 17 17 16 15 15 14 13 11 9 8 7 6 5 5 5 6 6 7 8 9 9 10 11 12 12 12 12 11 11 10 9 9 8 9 9 9 8
20 20 19 18 17 17 16 14 13 11 9 7 5 5 4 5 6 7 8 9 10 11 12 12 13 14 13 13 12 10 11 11 11 11 10 10 9 10
22 21 20 20 19 18 17 16 15 12 10 8 6 5 5 6 7 9 11 12 13 13 15 15 16 16 15 15 14 13 12 12 13 13 12 13 13 13
23 24 23 21 21 20 19 18 16 14 12 10 8 7 7 7 9 10 12 13 14 14 15 15 16 16 16 16 16 16 16 16 16 15 15 15 15 15
24 25 24 22 22 22 22 20 18 16 15 13 11 9 9 9 10 11 13 14 15 17 17 18 18 18 17 17 16 16 16 17 17 17 17 17 19 20
25 25 23 23 24 24 23 22 20 19 17 16 14 13 12 12 13 14 15 16 16 17 18 19 20 20 20 20 19 20 19 19 19 20 20 21 23 25
25 25 23 24 25 25 25 24 23 22 20 19 18 17 16 15 16 16 17 18 19 19 20 21 21 21 21 22 22 22 23 22 22 22 23 24 25 27
26 24 24 26 27 27 26 26 25 24 23 21 21 20 19 19 19 20 21 21 21 21 22 22 22 23 23 24 23 25 26 26 25 26 26 27 28 29
26 26 28 28 28 28 28 28 26 26 25 24 23 23 23 23 22 23 24 24 24 24 25 24 24 24 25 25 25 26 28 27 27 28 28 29 31 32
27 28 29 28 29 29 29 29 28 28 27 27 27 26 26 26 26 26 27 27 27 27 27 27 27 27 27 27 27 27 28 28 28 28 29 31 32 32
27 28 29 30 29 30 30 29 30 29 28 28 29 29 29 28 29 29 29 29 29 29 30 30 30 29 29 30 30 31 32 31 31 31 30 32 33 35
29 31 31 31 29 30 30 30 31 30 29 30 31 31 32 32 31 32 32 31 31 32 31 32 32 32 32 32 32 33 34 34 34 33 33 32 34 36
31 31 31 31 31 31 31 32 32 31 32 33 33 34 34 34 35 35 34 34 34 33 34 34 35 35 34 34 34 35 37 35 34 34 36 37 34 37
30 31 31 32 31 31 33 34 33 33 36 36 36 36 37 37 38 36 36 36 35 35 35 36 37 37 36 34 36 37 37 36 36 36 38 39 40 38
29 29 30 31 32 34 35 36 36 37 38 38 39 39 39 39 39 38 38 38 37 37 37 37 37 39 39 37 37 32 38 38 38 39 40 40 41 42
28 29 30 31 33 35 37 38 39 40 41 42 41 41 41 41 41 39 39 39 40 39 38 36 37 41 39 39 39 34 33 37 40 42 44 45 45 45
27 29 31 33 34 35 37 39 41 42 43 44 44 43 43 44 43 42 41 40 40 39 38 36 37 39 39 38 36 36 35 34 36 39 42 45 49 52
26 27 29 31 33 35 37 39 41 41 42 43 44 44 44 44 43 43 41 40 40 38 37 35 36 37 35 34 35 36 37 38 40 40 39 41 45 48
Wind_Direction
289 282 268 259 240 206 199 203 213 219 229 237 249 267 302 334 342 347 359 1 1 355 351 350 347 347 350 353 353 354 352 356 328 296 278 268 264 263
282 261 243 232 220 212 213 219 226 233 241 248 248 262 285 322 322 334 344 347 345 336 337 342 343 345 346 347 348 351 359 359 0 347 313 291 270 263
270 238 224 226 227 229 232 231 225 231 241 244 243 264 287 294 294 306 309 311 312 316 324 330 332 338 341 342 340 343 348 357 4 3 357 336 308 283
257 231 225 229 232 232 230 225 225 230 239 250 253 268 288 294 295 299 302 303 299 307 317 326 330 333 331 338 337 338 337 338 344 351 359 -0 1 347
245 233 228 228 230 226 226 224 226 233 239 249 258 264 272 285 294 302 302 300 303 310 317 322 329 332 328 334 337 335 334 338 341 338 339 341 347 349
234 229 227 227 224 223 224 224 224 227 230 238 248 260 273 292 300 301 304 308 308 311 315 322 327 333 331 334 336 337 340 342 341 339 336 333 331 331
235 223 222 224 222 221 222 223 221 219 221 228 241 262 280 293 301 310 314 312 310 309 310 315 320 327 331 330 328 332 334 336 339 337 335 332 330 328
233 225 219 220 221 222 222 221 221 217 219 226 237 257 287 305 316 322 324 321 316 312 311 314 318 320 322 323 322 323 326 326 331 333 334 334 334 332
231 226 219 219 220 221 221 222 222 221 224 230 241 258 281 301 315 321 320 317 313 309 306 306 310 311 311 313 313 314 318 321 322 323 325 326 327 326
229 228 223 223 222 222 222 223 225 225 230 236 245 256 275 291 303 310 313 314 313 311 308 307 308 308 304 304 304 304 307 312 314 315 316 318 321 323
229 227 223 225 227 226 225 226 229 231 235 241 249 258 269 281 291 301 305 306 308 308 306 303 301 303 303 301 303 304 306 309 311 314 316 319 323 324
228 227 224 226 229 229 228 228 231 235 239 244 251 259 267 275 284 291 296 300 302 304 305 304 302 300 299 299 299 299 301 302 305 310 314 315 317 319
228 227 226 227 228 230 230 232 234 239 243 248 254 260 266 273 280 286 291 295 299 302 303 302 301 298 295 297 299 300 299 300 303 306 308 309 313 316
226 227 228 229 230 231 234 235 237 242 245 250 255 261 267 273 279 283 287 292 295 297 298 299 299 297 295 294 296 299 297 294 295 297 300 305 309 312
227 230 234 235 235 237 239 241 241 244 248 253 257 262 266 272 276 280 284 288 292 295 296 297 298 296 292 290 291 295 292 289 287 290 295 299 303 305
232 235 237 238 238 240 243 247 249 248 250 255 259 263 267 271 274 278 281 284 287 289 292 295 296 295 294 292 292 296 295 289 286 288 291 296 301 304
232 234 237 239 241 244 246 247 250 253 255 256 259 263 267 270 272 275 277 281 284 286 289 291 294 294 294 292 294 296 295 291 289 290 292 298 301 302
239 241 242 243 245 248 251 253 254 255 256 258 261 264 267 269 271 273 277 280 283 287 290 292 293 293 292 292 292 295 294 290 289 291 294 297 298 299
247 247 247 249 250 251 253 255 257 258 258 260 263 265 267 269 272 275 278 280 283 286 290 291 292 292 290 290 290 294 290 287 287 289 293 295 296 297
253 253 253 252 252 253 254 255 256 258 260 262 263 265 267 270 273 276 278 280 282 285 287 289 290 288 287 289 291 289 287 287 288 290 292 292 295 298
255 257 256 253 253 254 255 257 259 260 262 263 265 267 270 272 275 277 279 281 282 285 286 286 284 285 288 289 290 287 283 288 292 294 295 295 297 296
257 258 262 263 263 263 262 262 262 263 264 266 268 269 270 272 274 277 278 279 281 282 283 282 282 284 288 289 288 286 287 288 290 291 294 297 300 301
268 265 264 264 267 268 269 270 270 269 270 270 270 271 272 273 274 274 276 277 278 279 280 281 281 284 285 284 286 289 291 295 295 291 290 292 295 297